EW9525 Weather Reports


time (UTC)temp
F
wind
direction
speed
knots
gust
knots
rain 1hr
in
rain 24hr
in
rain mn
in
humidity
%
barometer
mb
20260831131555 69 289 0.0 2.6 0.00 0.00 0.00 83 1011.1
20260831130053 68 235 0.9 2.6 0.00 0.00 0.00 85 1011.0
20260831124548 66 304 0.9 1.7 0.00 0.00 0.00 87 1010.8
20260831123047 66 309 1.7 2.6 0.00 0.00 0.00 86 1010.6
20260831121547 66 233 0.9 2.6 0.00 0.00 0.00 86 1010.5
20260831120047 66 231 1.7 2.6 0.00 0.00 0.00 86 1010.3
20260831114544 67 199 3.5 5.2 0.00 0.00 0.00 86 1010.2
20260831113047 67 212 1.7 3.5 0.00 0.00 0.00 84 1009.9
20260831111537 68 162 3.5 4.3 0.00 0.00 0.00 81 1009.9
20260831110035 69 328 2.6 4.3 0.00 0.00 0.00 81 1008.7
20260831104537 69 328 0.9 2.6 0.00 0.00 0.00 79 1009.0
20260831103030 70 204 2.6 5.2 0.00 0.00 0.00 78 1009.7
20260831101528 71 205 4.3 8.7 0.00 0.00 0.00 76 1010.0
20260831100033 71 217 5.2 7.0 0.00 0.00 0.00 74 1010.1
20260831094522 71 229 5.2 7.0 0.00 0.00 0.00 72 1010.2
20260831093020 72 242 2.6 7.0 0.00 0.00 0.00 70 1010.2
20260831091519 72 226 4.3 7.0 0.00 0.00 0.00 68 1010.1
20260831090019 72 185 3.5 7.0 0.00 0.00 0.00 66 1010.0
20260831084523 71 259 0.0 3.5 0.00 0.00 0.00 68 1010.1
20260831083015 72 226 2.6 5.2 0.00 0.00 0.00 68 1009.8
20260831081513 73 213 0.9 3.5 0.00 0.00 0.00 64 1009.7
20260831080012 73 237 0.9 2.6 0.00 0.00 0.00 62 1009.8
20260831074512 74 239 1.7 6.1 0.00 0.00 0.00 60 1010.0
20260831073011 74 219 6.1 12.2 0.00 0.00 0.00 58 1010.0
20260831071507 73 221 3.5 5.2 0.00 0.00 0.00 60 1009.6
20260831070006 73 205 3.5 4.3 0.00 0.00 0.00 60 1009.4
20260831064504 72 223 3.5 4.3 0.00 0.00 0.00 63 1009.3
20260831063001 73 221 2.6 4.3 0.00 0.00 0.00 62 1009.0
20260831061608 73 220 1.7 2.6 0.00 0.00 0.00 62 1009.0
20260831060109 73 244 1.7 2.6 0.00 0.00 0.00 59 1008.8
20260831054556 74 242 1.7 2.6 0.00 0.00 0.00 58 1008.7
20260831053119 73 225 1.7 2.6 0.00 0.00 0.00 58 1008.4
20260831051602 75 214 3.5 6.1 0.00 0.00 0.00 56 1008.5
20260831050047 80 269 0.9 5.2 0.00 0.00 0.00 42 1008.3
20260831044546 77 303 2.6 4.3 0.00 0.00 0.00 48 1008.0
20260831043045 78 295 4.3 7.0 0.00 0.00 0.00 45 1007.9
20260831041545 75 315 0.9 3.5 0.00 0.00 0.00 53 1007.7
20260831040045 79 307 1.7 4.3 0.00 0.00 0.00 46 1008.0
20260831034549 81 299 4.3 7.0 0.00 0.00 0.00 40 1008.3
20260831033102 78 307 2.6 4.3 0.00 0.00 0.00 45 1008.3
20260831031543 78 310 2.6 4.3 0.00 0.00 0.00 49 1008.2
20260831030042 78 312 2.6 5.2 0.00 0.00 0.00 49 1008.2
20260831024542 79 323 4.3 7.0 0.00 0.00 0.00 48 1008.3
20260831023040 80 294 6.1 12.2 0.00 0.00 0.00 49 1008.4
20260831021539 81 300 10.4 19.1 0.00 0.00 0.00 50 1008.1
20260831020043 81 276 0.9 1.7 0.00 0.00 0.00 52 1007.2
20260831014537 82 225 0.9 1.7 0.00 0.00 0.00 52 1007.2
20260831013039 81 158 0.9 1.7 0.00 0.00 0.00 55 1006.8
20260831011543 83 146 0.0 0.9 0.00 0.00 0.00 51 1006.6
20260831010035 84 139 0.9 1.7 0.00 0.00 0.00 53 1006.5
20260831004535 87 129 0.9 1.7 0.00 0.00 0.00 49 1006.5
20260831003037 89 146 0.9 3.5 0.00 0.00 0.00 44 1006.5
20260831001534 90 150 2.6 5.2 0.00 0.00 0.00 42 1006.6
20260831000037 90 164 2.6 5.2 0.00 0.00 0.00 41 1006.7
20260830234537 91 146 3.5 5.2 0.00 0.00 0.00 38 1006.7
20260830233036 92 130 4.3 7.8 0.00 0.00 0.00 38 1006.4
20260830231531 92 94 2.6 5.2 0.00 0.00 0.00 37 1006.3
20260830230033 92 76 3.5 6.1 0.00 0.00 0.00 37 1006.1
20260830224530 92 73 4.3 8.7 0.00 0.00 0.00 36 1006.1
20260830223030 92 84 4.3 7.0 0.00 0.00 0.00 40 1006.1
20260830221537 91 76 2.6 5.2 0.00 0.00 0.00 40 1005.9
20260830220029 92 67 4.3 7.8 0.00 0.00 0.00 36 1005.8
20260830214528 92 77 6.1 9.6 0.00 0.00 0.00 36 1005.8
20260830213033 91 75 3.5 6.1 0.00 0.00 0.00 37 1005.8
20260830211527 92 75 2.6 6.1 0.00 0.00 0.00 36 1005.8
20260830210027 93 77 0.0 4.3 0.00 0.00 0.00 31 1006.0
20260830204526 94 274 2.6 7.8 0.00 0.00 0.00 32 1006.0
20260830203023 94 252 1.7 5.2 0.00 0.00 0.00 30 1006.2
20260830201522 93 313 2.6 7.0 0.00 0.00 0.00 32 1006.2
20260830200020 93 271 1.7 6.1 0.00 0.00 0.00 30 1006.5
20260830194518 92 335 1.7 11.3 0.00 0.00 0.00 30 1006.5
20260830193017 92 292 3.5 7.0 0.00 0.00 0.00 29 1006.5
20260830191517 91 322 1.7 7.0 0.00 0.00 0.00 33 1006.4
20260830190014 90 225 2.6 7.0 0.00 0.00 0.00 35 1006.6
20260830184511 89 279 0.9 6.1 0.00 0.00 0.00 40 1006.6
20260830183008 89 317 1.7 7.8 0.00 0.00 0.00 36 1006.7
20260830181506 88 1 4.3 8.7 0.00 0.00 0.00 37 1006.8
20260830180003 87 14 5.2 8.7 0.00 0.00 0.00 38 1007.0
20260830174505 87 313 4.3 8.7 0.00 0.00 0.00 39 1007.3
20260830173126 87 314 4.3 7.8 0.00 0.00 0.00 37 1007.5
20260830171605 86 290 4.3 8.7 0.00 0.00 0.00 39 1007.7
20260830170054 85 323 1.7 4.3 0.00 0.00 0.00 43 1007.9
20260830164551 84 261 0.9 7.0 0.00 0.00 0.00 45 1007.8
20260830163050 82 295 4.3 9.6 0.00 0.00 0.00 49 1007.7
20260830161600 80 321 3.5 8.7 0.00 0.00 0.00 53 1007.5
20260830160040 77 297 2.6 7.0 0.00 0.00 0.00 61 1007.6
20260830154540 77 329 4.3 7.8 0.00 0.00 0.00 60 1007.2
20260830153041 77 295 3.5 7.0 0.00 0.00 0.00 61 1007.6
20260830151542 77 297 4.3 8.7 0.00 0.00 0.00 60 1007.2
20260830150037 76 304 3.5 7.0 0.00 0.00 0.00 62 1007.6
20260830144547 76 276 3.5 6.1 0.00 0.00 0.00 63 1007.5
20260830143032 74 296 5.2 10.4 0.00 0.00 0.00 65 1006.6
20260830141531 75 296 5.2 9.6 0.00 0.00 0.00 63 1006.8
20260830140031 74 289 5.2 9.6 0.00 0.00 0.00 66 1006.8
20260830134530 72 289 7.0 10.4 0.00 0.00 0.00 70 1006.8
20260830133031 71 297 3.5 6.1 0.00 0.00 0.00 74 1007.0